Regional Weather Roundup
Issued by NWS

Home | Current Version | Previous Version | Graphics & Text | Print | Product List | Glossary On
Versions: 1 2 3 4 5 6 7 8 9 10 11 12 13 14 15 16 17 18 19 20 21 22 23 24 25 26 27 28 29 30 31 32 33 34 35 36 37 38 39 40 41 42 43 44 45 46 47 48 49 50
203
ASUS43 KBIS 081802
RWRND

NORTH DAKOTA REGIONAL WEATHER ROUNDUP
NATIONAL WEATHER SERVICE BISMARCK ND
1200 PM CST MON FEB 08 2016

NOTE: "FAIR" INDICATES FEW OR NO CLOUDS BELOW 12,000 FEET WITH NO
SIGNIFICANT WEATHER AND/OR OBSTRUCTIONS TO VISIBILITY.


NDZ001>003-009>011-017-081900-
NORTHWEST NORTH DAKOTA

CITY           SKY/WX    TMP DP  RH WIND       PRES   REMARKS
WILLISTON      CLOUDY    32  18  56 NW13      30.36R
6HR MIN TEMP:  22; 6HR MAX TEMP:  32;

MINOT          MOSUNNY   30   9  41 NW21G29   30.28S WCI  17
MINOT AFB      MOSUNNY   28  10  48 NW21      30.27S WCI  14
$$

NDZ018>021-031>035-040>046-081900-
SOUTHWEST NORTH DAKOTA

CITY           SKY/WX    TMP DP  RH WIND       PRES   REMARKS
BISMARCK       CLOUDY    33  17  51 NW22G31   30.27F
6HR MIN TEMP:  25; 6HR MAX TEMP:  34;

DICKINSON      SUNNY     31  14  49 NW21G29   30.27F WCI  18
GARRISON         N/A     29  17  61 NW23G35   30.28S WCI  15
6HR MIN TEMP:  19; 6HR MAX TEMP:  30;

HETTINGER ARPT CLOUDY    35  12  38 NW26G35   30.30F
$$

NDZ004>008-012>016-024-026-027-054-081900-
NORTHEAST NORTH DAKOTA

CITY           SKY/WX    TMP DP  RH WIND       PRES   REMARKS
GRAND FORKS    SNOW      14   8  77 N23       30.20S VSB 1/2 WCI  -5
GRND FRKS AFB  DRIZZLE   14   4  63 N26G40    30.20F WCI  -6
DEVILS LAKE    FLURRIES  17  11  77 N16       30.22F WCI   2
$$

NDZ022-023-025-028>030-036>039-047>053-081900-
SOUTHEAST NORTH DAKOTA

CITY           SKY/WX    TMP DP  RH WIND       PRES   REMARKS
FARGO          MOSUNNY   16   8  71 N25G40    30.18S BLWGSNOWWCI  -3
6HR MIN TEMP:  13; 6HR MAX TEMP:  16; 6HR PCP:  0.01;

JAMESTOWN      CLOUDY    21  11  65 NW26G36   30.18F WCI   4
$$





USA.gov is the U.S. government's official web portal to all federal, state and local government web resources and services.